Regional Weather Roundup
Issued by NWS Charleston, SC

Current Version | Previous Version | Graphics & Text | Print | Product List | Glossary On
Versions: 1 2 3 4 5 6 7 8 9 10 11 12 13 14 15 16 17 18 19 20 21 22 23 24 25 26 27 28 29 30 31 32 33 34 35 36 37 38 39 40 41 42 43 44 45 46 47 48 49 50
000
ASUS42 KCHS 220727
RWRCHS

REGIONAL WEATHER ROUNDUP
NATIONAL WEATHER SERVICE CHARLESTON SC
300 AM EDT FRI MAY 22 2015

NOTE: "FAIR" INDICATES FEW OR NO CLOUDS BELOW 12,000 FEET WITH NO
SIGNIFICANT WEATHER AND/OR OBSTRUCTIONS TO VISIBILITY.

NOT ALL STATIONS ARE QUALITY CONTROLLED BY THE NATIONAL
WEATHER SERVICE. USE DATA WITH CAUTION...ESPECIALLY
DEWPOINT OBSERVATIONS.

SCZ027-030-031-034>040-042>050-220800-
...SOUTHEAST SOUTH CAROLINA...

CITY           SKY/WX    TMP DP  RH WIND       PRES   REMARKS
N CHARLESTON   CLEAR     72  58  61 NW7       29.94S
WATERFRONT PAR   N/A     76  60  57 VRB3      29.91S
MOUNT PLEASANT LGT RAIN  73  61  64 NW6       29.95R
JOHNS ISLAND   SUNNY     70  63  78 NW6       29.95S
PINOPOLIS      NOT AVBL
MONCKS CORNER  FAIR      70  59  68 CALM      29.95R
SUMMERVILLE    FAIR      70  59  68 NW3       29.96R
BEAUFORT MCAS  CLEAR     74  60  61 NW10      29.96R
BEAUFORT ARPT  FAIR      73  63  68 NW12      29.96R
HILTON HEAD IS CLEAR     73  63  68 W7        29.98R
WALTERBORO     MOSUNNY   68  55  64 NW7       29.97R
ALLENDALE      FAIR      68  55  64 VRB6      29.98S

...SOUTHERN MIDLANDS AND PEE DEE...

CITY           SKY/WX    TMP DP  RH WIND       PRES   REMARKS
GEORGETOWN     NOT AVBL
KINGSTREE      NOT AVBL
ORANGEBURG     CLOUDY    69  56  62 NW7       29.98R
BARNWELL       FAIR      66  55  68 W7        30.01R
AIKEN          FAIR      61  50  67 NW6       30.04S
MANNING        FAIR      68  55  64 NE6       29.97R
COLUMBIA       MOCLDY    70  49  47 N8G18     29.98R
SUMTER         CLOUDY    68  61  77 NE14      29.97R
FLORENCE       CLOUDY    67  61  81 NE7       29.99R
MYRTLE BEACH   PTCLDY    66  59  77 N9        30.00R
N MYRTLE BEACH CLOUDY    67  60  78 N6        29.97S

$$

GAZ063-065-086>088-099>101-113>116-118-119-134>141-150-220800-
...SOUTHEAST GEORGIA...

CITY           SKY/WX    TMP DP  RH WIND       PRES   REMARKS
SAVANNAH ARPT  CLEAR     72  59  63 NW6       29.97R
HUNTER AAF     CLEAR     71  64  78 NW9       29.95R
FORT STEWART   CLEAR     73  59  60 NW10      29.96R
STATESBORO     CLEAR     67  61  79 NW8       30.00R
SYLVANIA       MOSUNNY   69  60  74 NW7       30.01R
CLAXTON        FAIR      70  59  68 NW10G22   30.00R

...CSRA...CENTRAL AND FAR SOUTHEAST GEORGIA...

CITY           SKY/WX    TMP DP  RH WIND       PRES   REMARKS
THOMSON        CLOUDY    62  54  76 W6        30.08R
AUGUSTA-BUSH   MOCLDY    65  51  60 NW10      30.01R
AUGUSTA-DANIEL MOCLDY    65  51  60 NW7G16    30.02S
SWAINSBORO     FAIR      66  55  68 NW10      30.03S
VIDALIA        PTCLDY    68  55  64 NW12G17   30.01S
EASTMAN        FAIR      64  56  75 NW7       30.07R
HAZLEHURST     FAIR      70  60  71 NW5       30.01S
ALMA           CLEAR     70  60  70 NW6       30.00S
WAYCROSS       CLEAR     70  64  79 NW7       30.00S
JESUP          FAIR      73  64  73 NW8       29.99R
BAXLEY         FAIR      72  61  68 N7        30.00S
BRUNSWICK      CLEAR     72  63  73 W6        29.98S
SAINT SIMONS   NOT AVBL

$$

SCZ027-028-034-036>038-045-046-048>050-GAZ119-141-220800-
...LAKE AND SUPPLEMENTAL COASTAL OBSERVATIONS...

STATION/POSITION TIME  TEMP    WIND        PRES    WAVE   SWELL
                       AIR SEA DIR/SP/G            HT/PER HT/PER/DIR
                 (UTC) (F)     (DEG/KT/KT) (MB)    (FT/S) (FT/S/D)
UPR LAKE MARION  NOT AVBL
WINYAH BAY       0600   72      50/ 15     1013.0S
LAKE MURRAY      0600   67     330/  4/  8 1015.2R
ACE BASIN NERRS  NOT AVBL
FORT PULASKI     0700      79  310/ 11/ 13 1015.1R
SAPELO ISLAND    0600   76     300/  5     1015.0S

$$

ANZ835-935-AMZ111-154-330-350-352-354-370-450-454-472-220800-
...C-MAN AND BUOY OBSERVATIONS...

STATION/POSITION TIME  TEMP    WIND        PRES    WAVE   SWELL
                       AIR SEA DIR/SP/G            HT/PER HT/PER/DIR
                 (UTC) (F)     (DEG/KT/KT) (MB)    (FT/S) (FT/S/D)
BUOY 41004       0650   77 76  310/ 10/ 12 1012.5R   3/ 5   2/ 9
BUOY 41008       0650   78 77  320/ 14/ 16 1014.2F   2/ 3
FOLLY BEACH CMAN 0700   72     310/  4/  5 1013.9R
CAPERS NEARSHORE 0608   77     330/ 10/ 14 1013.5S
FRIPP NEARSHORE  0600   78     320/ 12/ 14 1013.6R


STATION/POSITION TIME  TEMP    WIND        PRES    WAVE   SWELL
                       AIR SEA DIR/SP/G            HT/PER HT/PER/DIR
                 (UTC) (F)     (DEG/KT/KT) (MB)    (FT/S) (FT/S/D)
5E ST. MARYS GA  0621      78                N/A     2/ 3
FRYING PAN BUOY  0650   72 75   10/ 16/ 19 1014.6R   4/ 6   2/160/ 9
BUOY 41025       0650   64 76   10/ 17/ 21 1013.1R   5/ 5
CAPE LOOKOUT NC  0700   63     350/ 10/ 12 1014.6R
BUOY 41002       0650   76 75  240/ 14/ 17 1013.6R   4/ 6   2/140/ 8
BUOY 41010       0620   80 79  220/ 12/ 16 1015.6F
ST AUGUSTINE FL  0700   76 73  300/  7/  9 1016.1F


$$



USA.gov is the U.S. government's official web portal to all federal, state and local government web resources and services.